Location: Aix-en-Ergny
(50.5839°N, 1.9996°E)
Time: 03:47:14
(UTC+00:00)

Cosmos 1825 Rocket - Pass Details

Date: 23 October 2019
Orbit: 605 x 630 km, 82.5° (Epoch: 18 November)

Event Time Altitude Azimuth Distance (km) Brightness Sun altitude
Rises 05:43:04 0° 179° (S) 2,849 7.1 -7.7°
Reaches altitude 10° 05:45:17 10° 176° (S) 1,950 6.3 -7.3°
Maximum altitude 05:49:32 62° 96° (E) 688 4.2 -6.7°
Drops below altitude 10° 05:53:50 10° 16° (NNE) 1,970 6.2 -6.0°
Sets 05:56:05 0° 13° (NNE) 2,881 7.0 -5.6°
